Theta_e
311 312 313 316 318 319 319 319 319 320 320 320 320 319 319 319 319 320 321 322 322 321 321 320 320 320 320 319 319 319 319 320 320 321 321 322 323 324 324 324 324 324 324 324 324 324 324 324 324 324 324 323 323 322 321 321 320 318 317 315 314 313 313 312 312 312 312 312 312 312 311 311 310 310 309 308 307 307 306 306 305 305 305 305 305 305
309 310 312 315 318 319 319 319 319 320 320 320 319 319 318 318 319 320 320 321 321 320 319 319 319 319 319 318 317 316 316 315 315 316 316 317 318 319 319 320 321 322 322 322 323 323 323 323 323 323 322 322 321 320 319 318 317 315 314 313 313 312 312 312 312 312 312 312 311 311 311 310 309 308 307 305 304 303 302 302 302 302 302 303 304 305
309 310 312 315 318 319 319 319 319 320 320 320 319 318 318 318 319 320 320 321 320 319 319 319 318 318 318 317 317 316 315 314 314 313 313 313 313 314 315 315 316 317 317 318 318 319 319 319 319 318 318 317 317 316 315 314 313 313 312 312 312 312 312 311 311 311 311 311 311 310 310 309 308 306 303 302 300 299 299 299 299 299 300 301 302 303
310 310 312 314 317 319 319 319 319 320 320 319 318 318 318 318 319 320 321 320 320 319 319 318 318 318 318 317 316 316 315 314 314 314 313 313 313 312 312 313 313 313 314 314 314 315 315 315 315 314 314 314 313 313 313 312 312 312 311 311 311 311 311 311 311 310 310 310 310 309 308 307 304 302 300 299 298 298 298 298 298 299 299 300 300 301
310 310 312 314 316 318 319 319 319 319 319 319 318 317 318 318 319 319 320 320 319 319 318 318 318 318 318 317 317 316 315 315 315 315 315 314 314 313 313 313 312 312 312 312 312 313 313 313 313 313 313 313 312 312 312 312 312 312 311 311 311 310 310 310 310 310 309 309 308 307 306 303 301 299 299 298 298 299 299 299 299 299 299 299 300 300
310 310 311 314 316 317 318 318 318 319 318 317 317 317 317 318 319 319 320 319 318 318 317 317 317 317 317 317 317 317 316 316 316 316 316 316 315 315 315 314 314 313 312 312 312 312 312 312 312 312 312 312 312 312 312 312 312 312 311 310 310 310 309 309 309 308 308 307 306 304 303 301 299 299 299 299 299 299 300 299 300 300 299 299 299 300
309 310 311 314 315 316 316 316 317 317 317 317 316 317 317 318 319 319 319 318 317 317 316 316 315 315 315 316 316 317 317 317 317 317 317 316 316 316 316 315 315 314 314 313 312 312 311 311 311 311 311 310 311 311 311 311 311 311 310 310 309 309 308 308 307 307 306 305 303 302 300 299 299 299 299 299 299 299 299 299 299 299 299 299 299 300
309 309 310 313 314 315 315 315 316 316 315 316 316 316 316 317 317 317 317 316 316 315 315 315 314 314 314 314 314 315 315 316 316 316 317 317 317 316 316 316 316 315 315 314 313 313 312 312 311 311 311 310 310 310 310 310 310 309 309 308 308 307 307 306 305 305 304 302 301 300 299 299 299 299 299 299 299 299 299 299 299 299 299 299 299 300
309 309 310 312 313 314 314 314 314 314 314 314 315 315 315 316 316 316 315 314 314 314 314 314 314 314 313 313 313 313 313 314 314 314 315 315 315 315 316 316 315 315 315 315 314 313 313 312 312 312 311 311 311 311 311 310 309 309 308 307 307 306 306 305 304 303 302 300 300 299 299 299 299 300 300 300 300 300 299 299 299 299 299 299 299 300
310 309 310 311 313 314 314 314 313 313 313 313 314 314 315 315 315 314 313 313 313 313 314 314 314 313 313 313 312 312 313 312 312 313 313 314 314 314 314 314 314 314 314 314 313 313 313 312 312 311 311 311 311 310 310 309 309 308 307 307 306 305 304 303 302 301 300 299 299 299 299 300 300 300 300 300 300 300 300 300 299 299 299 299 300 301
310 310 310 311 312 313 314 313 312 312 313 313 313 313 314 314 314 314 313 312 312 312 313 313 313 312 312 312 312 312 313 312 312 312 312 313 313 313 313 313 313 313 313 312 312 311 311 310 310 310 309 309 309 308 308 307 307 307 306 306 305 304 303 302 301 300 299 299 299 299 300 300 300 301 301 301 301 300 300 300 300 299 299 299 300 301
310 310 310 311 312 313 313 312 311 311 312 312 313 313 313 313 314 313 312 312 312 312 313 313 312 312 312 312 312 312 312 312 312 312 312 312 312 312 312 312 312 312 311 311 311 310 310 309 308 308 307 307 306 306 306 306 306 305 305 305 304 303 301 300 300 299 299 300 300 300 300 300 301 301 301 301 301 301 300 300 300 299 299 300 300 301
309 309 310 311 312 312 312 311 310 310 311 311 312 312 312 312 313 313 312 312 312 312 312 312 311 311 311 312 312 312 311 311 311 311 311 311 311 311 311 311 311 311 311 310 310 310 309 309 308 307 307 306 306 305 305 305 305 305 304 303 302 301 300 300 299 300 300 300 300 300 301 301 301 301 301 301 301 300 300 300 300 299 299 299 300 300
309 309 310 311 311 311 311 310 310 310 311 311 311 311 311 311 312 312 312 312 312 312 312 311 310 310 311 312 312 311 311 311 311 311 311 311 311 310 310 310 310 310 310 310 309 309 309 309 308 308 307 307 306 306 305 305 305 304 303 302 301 300 300 300 300 300 300 300 301 301 301 301 301 301 301 301 301 300 300 300 300 300 299 299 299 299
309 309 309 310 310 310 310 310 310 311 311 312 311 311 310 311 312 312 312 312 311 311 311 310 309 308 310 311 311 311 311 310 310 310 310 310 310 310 310 309 309 309 309 309 309 308 308 308 308 308 308 308 307 307 306 305 304 303 302 301 300 300 300 300 300 301 301 301 301 301 301 301 301 301 301 301 301 300 300 300 300 300 299 299 299 299
309 309 309 309 309 310 310 310 311 311 311 311 311 310 310 311 312 312 312 311 311 311 310 309 309 308 309 310 311 311 311 310 309 309 308 308 309 309 309 309 309 309 309 309 309 308 308 308 308 308 308 308 307 307 306 305 304 303 301 301 300 300 300 301 301 301 301 301 301 301 301 301 301 301 301 301 301 300 300 300 300 300 299 299 299 298
308 309 309 309 308 308 308 309 310 310 309 309 309 310 310 311 311 312 311 311 310 310 310 310 309 309 309 309 309 310 310 309 308 307 307 307 307 308 308 309 309 308 308 308 308 308 308 308 308 308 307 307 306 306 305 304 303 302 301 301 301 301 301 302 302 302 302 302 301 301 301 302 302 302 302 301 301 300 300 300 300 300 299 299 298 298
305 306 308 306 304 303 303 304 305 305 307 308 309 309 310 310 311 311 311 311 310 310 310 310 309 310 310 309 309 309 309 309 307 306 306 306 306 307 307 308 308 307 307 307 307 308 308 308 308 308 307 306 306 305 304 303 303 302 301 302 302 302 302 303 303 303 302 302 302 302 302 302 302 302 302 301 301 300 300 300 300 299 299 299 298 298
298 298 299 301 301 300 300 300 301 302 303 306 308 309 309 310 310 311 311 310 310 310 310 310 309 309 309 309 309 309 309 308 307 306 305 305 305 306 307 307 307 306 306 306 307 308 308 308 308 308 307 306 305 304 303 303 302 302 302 303 303 303 303 303 303 303 303 303 302 302 302 302 302 302 301 301 300 300 300 300 300 299 299 298 298 297
295 294 295 296 298 298 298 297 297 298 300 303 306 308 309 309 310 310 310 310 310 310 310 310 310 310 309 308 308 308 309 308 307 305 304 303 304 305 306 306 306 306 306 306 307 307 308 308 308 308 307 306 305 304 303 303 303 303 303 304 304 304 304 304 304 304 303 303 303 302 302 302 302 301 301 301 300 300 300 300 299 299 298 298 297 296
293 293 293 294 295 296 296 295 295 297 299 301 304 307 308 308 309 309 310 310 310 310 310 310 310 310 309 307 307 307 308 307 306 304 303 302 302 303 305 305 305 305 305 306 307 307 307 307 307 307 307 306 305 304 304 303 303 304 304 304 305 305 305 305 304 304 304 303 303 302 302 302 301 301 301 300 300 300 300 299 299 298 297 297 296 296
292 292 292 293 293 294 294 294 295 296 298 301 303 305 307 308 308 308 308 309 310 310 308 306 305 306 306 305 305 306 307 306 305 303 303 302 301 301 303 304 304 304 305 306 307 307 307 307 307 307 307 307 306 305 305 304 304 305 305 305 305 305 305 305 305 304 304 303 303 302 302 302 301 301 300 300 300 299 299 298 298 297 296 296 295 295
290 290 291 291 292 293 293 294 295 296 298 300 301 302 303 306 308 309 308 308 308 305 302 301 302 303 303 303 304 305 305 305 304 303 303 302 300 300 302 303 304 303 303 304 305 306 306 306 306 306 307 307 306 306 305 305 305 305 305 305 305 305 305 305 304 304 303 303 302 302 302 301 301 300 300 299 299 298 297 297 296 296 295 295 294 294
288 288 289 290 291 292 292 293 294 295 297 298 300 301 303 304 305 307 308 307 305 303 301 301 301 301 301 301 302 303 304 303 303 303 302 301 300 300 301 302 302 302 301 302 303 304 305 305 305 305 305 306 306 305 305 305 305 305 305 305 304 304 304 304 303 303 302 302 301 301 300 300 299 298 298 297 297 296 295 295 295 294 294 294 293 293
287 287 287 288 289 290 291 292 293 294 295 297 298 300 302 303 305 305 306 305 304 302 301 301 300 299 299 299 300 301 302 302 303 303 301 300 299 299 300 301 301 300 300 300 302 303 303 303 303 303 303 304 304 304 304 304 304 304 303 303 303 303 303 302 302 301 301 300 300 299 298 297 297 296 295 295 294 294 294 294 294 294 293 293 293 293
286 286 286 287 288 289 290 291 292 293 294 295 297 299 300 302 304 305 305 304 303 302 301 300 299 298 298 298 298 299 300 301 302 302 301 300 299 299 299 300 299 298 298 298 300 301 301 301 301 301 301 301 302 302 302 302 302 302 301 301 301 301 300 300 300 299 298 298 297 296 296 295 294 294 293 293 293 293 293 293 293 293 293 292 293 293
285 286 286 286 287 287 288 289 290 291 292 294 295 297 300 301 302 303 303 302 302 302 302 301 299 298 298 297 297 297 299 300 301 301 302 301 299 298 297 297 297 297 296 296 297 298 298 298 298 298 299 299 299 299 300 300 299 299 299 299 298 298 298 298 297 297 296 296 295 295 294 293 293 293 292 292 292 292 292 292 292 292 292 292 292 293
284 285 285 285 286 286 287 288 289 290 291 292 294 296 298 300 300 300 300 301 302 303 302 301 300 299 298 297 295 296 297 298 299 300 301 301 299 297 295 295 296 296 295 295 295 296 296 295 295 296 297 297 297 297 297 297 297 297 297 297 296 296 296 296 295 295 294 294 294 293 293 292 292 292 292 292 292 292 292 292 292 292 292 292 292 292
284 284 284 284 284 285 285 286 287 288 289 290 292 293 295 296 295 294 295 298 301 302 302 301 301 300 298 296 295 295 295 296 297 298 300 300 298 296 295 295 295 296 295 294 294 293 293 293 293 294 295 295 295 295 295 295 295 295 295 295 294 294 294 294 294 293 293 293 293 292 292 292 291 291 291 291 291 291 291 291 291 291 291 291 291 291
283 283 283 283 283 283 284 284 285 286 287 288 289 290 291 291 291 292 294 296 299 301 302 301 300 299 297 296 295 294 294 294 295 297 298 299 297 295 295 295 295 296 296 295 293 292 291 291 291 292 293 293 294 294 293 293 293 293 293 293 293 293 292 292 292 292 292 292 291 291 291 291 290 290 290 290 290 290 290 290 290 291 291 291 291 291
281 281 282 282 282 282 282 283 283 284 285 287 287 287 288 288 289 291 293 295 297 299 301 300 300 299 298 298 297 295 293 292 294 296 297 298 297 296 295 295 296 296 296 296 294 293 291 290 290 291 291 291 292 292 292 291 292 292 292 292 291 291 291 291 291 291 291 290 290 290 290 290 289 289 289 289 289 289 289 289 290 290 290 290 290 290
280 280 280 281 281 281 281 282 282 283 284 284 285 285 285 286 287 288 290 292 294 296 298 299 299 299 299 300 298 295 292 291 292 294 296 297 297 296 296 296 296 296 296 296 296 295 293 291 289 289 290 290 290 290 290 290 291 291 291 291 290 290 290 290 290 289 289 289 289 289 289 288 288 288 288 288 288 288 288 289 289 289 289 289 289 290
279 280 280 280 280 280 281 281 281 281 282 282 282 282 283 284 285 286 287 289 290 292 294 295 296 296 295 294 293 291 289 289 291 293 294 296 296 297 297 297 296 295 296 296 296 296 294 292 290 288 289 289 289 289 289 289 290 290 290 290 289 289 288 288 288 288 288 288 288 288 288 288 288 288 288 288 288 288 289 288 288 288 288 288 289 289
279 279 279 279 280 280 280 280 280 280 281 281 281 281 281 282 283 283 285 286 287 289 289 290 290 291 290 290 288 287 287 288 290 292 293 294 295 296 296 296 296 295 295 295 295 295 294 292 291 289 289 288 288 288 288 288 289 289 289 289 289 288 288 288 288 288 288 288 288 288 288 288 288 288 289 289 289 289 289 289 288 288 287 288 288 289
279 278 279 279 279 279 279 279 280 280 280 280 280 280 280 281 281 282 282 283 284 285 286 286 287 287 288 288 287 286 286 287 289 291 292 293 294 295 295 295 295 295 295 295 295 294 293 292 291 290 289 288 288 287 287 288 288 288 288 289 288 288 288 288 288 288 288 288 288 288 288 288 288 288 288 289 289 289 289 288 287 287 286 286 287 287
278 278 278 278 278 278 278 279 279 279 279 280 280 280 280 280 280 281 281 282 282 283 283 284 284 285 285 285 285 284 284 286 288 290 291 292 293 293 293 293 294 294 294 294 294 294 293 292 291 290 289 289 288 287 287 287 287 287 288 288 288 288 288 288 288 288 288 288 287 287 287 287 287 287 287 287 288 288 287 287 286 286 286 285 285 285
278 278 278 278 278 278 278 278 278 278 279 279 279 279 280 280 280 280 280 281 281 281 282 282 282 283 283 283 283 283 284 285 287 289 290 291 292 292 291 291 291 292 292 293 293 293 292 291 291 290 289 289 288 287 286 286 286 286 287 287 287 287 287 287 287 287 287 287 287 286 286 286 286 286 286 286 286 286 286 286 285 285 285 285 284 284
277 277 277 277 277 277 277 277 278 278 278 278 279 279 279 279 279 280 280 280 280 281 281 281 281 281 282 282 283 283 284 286 287 288 289 290 291 291 290 290 290 290 291 291 291 292 292 291 291 290 290 289 288 287 287 286 286 286 286 286 286 286 286 286 286 287 287 287 286 286 286 286 285 285 285 285 285 285 285 285 285 285 284 284 284 284
277 277 277 277 277 277 277 277 277 277 278 278 278 279 279 279 279 279 279 280 280 280 280 280 280 281 281 282 283 283 285 286 287 287 288 289 289 289 289 289 289 289 289 290 290 290 291 291 291 290 289 288 287 287 286 286 286 286 286 286 286 285 285 285 286 286 286 286 286 286 285 285 285 285 285 285 285 285 285 285 285 284 284 284 284 284
276 276 276 276 276 276 276 276 277 277 277 278 278 278 279 279 279 279 279 279 279 280 280 280 280 280 281 281 282 283 283 284 286 286 287 288 288 288 288 288 288 288 288 289 289 289 289 290 289 289 289 288 287 286 286 286 286 286 286 286 286 286 285 285 285 285 285 286 286 286 286 285 285 285 285 285 284 284 284 284 284 284 284 284 284 284
276 276 276 276 276 276 276 276 276 277 277 277 278 278 278 279 279 279 279 279 279 279 279 279 280 280 280 280 280 281 282 283 284 285 286 286 287 287 287 287 287 287 288 288 288 288 288 288 288 288 287 287 286 286 286 286 286 286 286 286 286 286 285 285 285 285 285 285 285 285 285 285 284 284 284 284 284 284 284 284 283 284 284 284 284 284
275 275 275 275 275 275 275 276 276 276 277 277 277 277 278 278 279 279 279 279 279 279 279 279 279 279 279 279 279 279 280 281 281 283 284 285 285 286 286 286 286 286 287 287 287 287 287 287 287 287 287 287 287 286 286 286 286 286 286 286 286 286 285 285 284 284 285 285 284 284 284 284 284 284 283 284 284 283 283 283 283 283 283 283 283 283
275 275 275 275 275 275 275 275 276 276 276 276 277 277 277 278 278 279 279 279 279 279 279 279 279 279 279 279 279 279 279 279 280 281 281 282 283 284 285 285 285 285 285 286 286 285 286 286 286 286 286 287 287 286 286 286 285 285 285 285 285 286 286 285 284 284 284 284 283 283 283 283 283 283 283 283 283 283 283 282 282 282 282 282 283 283
275 275 275 275 275 275 275 275 275 275 276 276 276 276 277 277 277 278 278 279 279 279 279 279 279 279 279 279 279 278 278 278 279 279 280 280 281 282 283 283 283 284 284 284 284 284 284 284 284 284 285 285 285 285 285 285 285 284 284 284 284 285 285 285 284 284 283 283 283 282 282 282 282 282 282 283 283 283 283 282 282 282 282 282 282 282
275 275 274 274 274 275 275 275 275 275 275 275 276 276 276 276 277 277 278 278 278 278 279 279 279 279 279 279 279 279 278 278 278 278 279 279 280 280 281 281 282 282 282 283 283 283 283 283 283 283 283 284 284 285 284 284 284 284 283 283 284 284 284 284 284 283 283 283 282 282 281 281 281 282 282 283 283 283 282 282 282 282 282 282 282 282
274 274 274 274 274 274 275 275 275 275 275 275 275 275 276 276 276 277 277 278 278 278 278 278 278 279 279 279 279 278 278 278 278 278 278 278 278 279 279 280 280 280 281 281 281 282 282 282 282 282 283 283 283 283 284 284 284 283 283 283 283 283 283 283 283 283 283 282 282 281 281 281 281 282 282 282 282 282 282 282 282 282 282 281 281 281
274 274 274 274 274 274 274 274 275 275 275 275 275 275 275 275 276 276 276 277 277 277 278 278 278 278 278 278 278 278 278 278 278 278 277 277 277 278 278 279 279 279 280 280 280 281 281 281 282 282 282 283 283 283 283 283 283 283 283 283 283 283 283 282 282 282 282 281 281 281 281 281 281 282 282 282 282 282 282 282 281 281 281 281 281 281
273 274 274 274 274 274 274 274 274 275 275 275 275 275 275 275 275 276 276 276 277 277 277 277 277 277 277 277 277 277 277 277 277 277 277 277 277 277 277 278 278 278 279 279 279 280 280 280 281 281 282 282 282 282 282 282 282 282 282 283 283 283 283 282 281 281 281 281 280 280 280 280 281 281 281 281 281 281 281 281 281 281 281 281 280 280
273 273 273 274 274 274 274 274 274 274 274 274 275 274 274 275 275 276 276 276 277 277 277 277 277 277 277 277 277 277 277 277 277 277 277 277 277 277 278 278 278 278 278 278 279 279 279 280 280 280 281 282 282 282 282 282 282 282 282 282 283 282 282 282 281 281 281 280 280 280 280 280 280 280 280 280 281 281 281 281 281 281 281 280 280 280
273 273 273 273 274 274 274 274 274 274 274 274 274 274 275 275 275 275 276 276 276 276 277 277 277 277 277 277 277 277 277 277 277 277 277 277 277 277 278 278 278 278 279 279 279 279 280 280 280 280 280 281 281 282 282 282 281 281 282 282 282 282 281 281 281 280 280 280 280 280 280 280 280 279 280 280 280 280 281 281 281 281 281 280 280 280
272 272 273 273 273 273 273 274 274 274 274 274 274 274 275 275 275 275 275 276 276 276 276 276 276 276 276 276 276 276 276 276 276 276 276 276 277 277 278 278 279 279 279 279 280 280 281 281 281 280 280 280 280 281 281 281 281 281 281 281 281 280 281 281 280 280 280 279 279 279 279 279 279 279 279 280 280 280 280 281 281 281 281 280 280 280
Wind_Speed
4 7 12 15 15 15 16 18 19 18 18 19 20 20 20 20 19 17 17 19 20 19 18 17 18 19 21 21 20 19 20 20 21 22 23 24 24 25 25 26 27 28 29 29 30 30 31 32 33 34 34 33 31 30 28 27 25 24 23 22 23 23 23 24 24 24 24 24 23 22 22 21 19 18 17 17 16 16 16 16 16 16 15 15 14 14
6 6 10 13 15 15 15 19 20 19 19 20 21 22 22 21 18 17 17 19 20 19 18 18 18 19 21 22 22 21 20 19 18 18 18 18 19 20 21 22 24 25 26 27 28 29 30 32 32 32 30 29 28 27 26 25 24 23 23 23 24 24 25 25 25 25 24 24 24 23 22 21 20 19 18 18 17 17 17 17 17 16 16 16 15 15
7 8 10 12 15 16 16 19 20 20 20 21 22 24 24 23 20 18 18 20 20 19 18 18 18 18 19 22 23 23 23 22 21 20 20 19 19 18 18 19 20 20 21 22 23 23 24 24 25 24 24 23 23 23 22 22 22 22 22 23 23 24 24 25 25 25 24 24 24 23 22 21 20 19 19 19 18 18 18 18 17 17 16 16 15 15
10 11 11 12 14 15 16 19 20 21 21 22 23 24 25 24 22 20 20 21 21 19 18 18 18 18 18 20 22 25 25 24 24 24 24 23 22 22 21 21 20 20 20 21 21 21 20 20 19 19 19 19 19 19 19 19 19 19 19 20 21 22 23 24 24 24 24 24 23 22 22 21 20 19 19 19 19 19 18 18 17 16 16 15 14 14
13 13 13 12 13 15 17 18 20 22 22 23 23 23 24 23 22 22 21 21 20 20 19 18 18 18 18 18 21 24 25 25 26 26 26 26 26 26 26 25 24 23 23 23 23 22 22 21 20 19 18 17 17 17 17 17 17 17 18 18 19 20 22 23 24 24 23 23 22 21 21 20 20 19 19 19 19 19 18 17 16 15 15 14 13 13
14 14 13 13 14 15 17 18 21 23 23 22 23 22 22 21 22 23 22 21 21 20 20 19 18 17 18 18 21 23 25 26 26 27 27 28 28 29 29 29 28 27 27 26 25 25 24 23 22 20 19 18 17 17 17 17 17 17 18 19 19 20 22 23 23 23 23 22 22 21 21 20 20 20 19 19 18 18 17 16 15 14 14 13 12 12
13 12 11 12 12 13 16 18 22 24 22 22 22 22 20 20 22 23 22 21 21 21 20 19 18 17 17 19 21 23 24 25 25 26 26 27 28 28 29 30 30 30 30 29 29 28 27 26 25 24 22 20 19 18 18 18 18 18 18 19 20 21 22 22 22 22 22 22 22 22 21 21 21 20 19 18 17 16 15 15 14 13 13 12 12 12
12 10 10 10 10 11 14 17 21 23 23 21 21 21 19 20 21 22 20 19 20 21 21 20 18 17 17 19 21 22 22 22 22 23 24 25 26 27 27 28 28 29 29 30 30 30 29 29 28 27 27 25 24 23 22 21 20 20 20 20 21 22 23 23 23 23 23 23 22 22 22 21 20 19 18 17 16 15 15 14 14 13 13 12 12 12
14 12 12 12 11 12 15 16 19 23 23 22 21 20 18 19 20 20 19 18 19 20 20 20 19 18 18 19 21 21 20 20 20 20 21 22 24 25 26 26 26 27 27 27 28 28 29 29 29 29 29 29 29 28 28 27 27 26 25 25 25 25 25 25 24 24 24 24 23 22 21 20 19 18 17 16 15 15 14 14 13 13 12 12 12 12
17 16 16 16 15 15 15 15 17 20 22 21 21 21 19 19 19 18 17 17 17 17 19 19 19 19 19 19 19 19 18 18 18 19 19 20 22 23 25 25 25 25 26 26 26 26 26 27 28 28 29 30 30 31 31 31 31 31 30 29 29 28 27 27 26 26 26 25 23 22 20 19 18 17 16 15 15 14 14 14 13 13 13 13 12 12
16 18 18 17 16 17 16 16 17 20 21 21 21 22 20 19 18 18 17 16 16 16 16 18 19 19 19 19 19 18 18 18 17 17 18 19 21 23 24 24 25 25 25 25 25 25 25 25 26 26 27 28 29 30 30 31 31 31 30 30 29 29 28 28 27 27 26 24 23 21 19 18 17 16 16 15 15 14 14 13 13 13 13 13 13 13
15 15 16 15 16 16 16 17 19 20 20 21 21 20 19 19 19 19 19 18 17 16 17 18 18 18 18 19 18 18 19 18 18 18 18 19 19 21 22 22 23 23 24 24 25 25 26 26 26 26 27 27 28 29 29 29 30 29 29 29 29 29 28 28 27 26 25 23 22 20 18 17 17 16 15 15 15 14 14 13 13 13 13 13 13 13
14 13 13 13 15 16 16 16 17 17 17 19 18 17 15 16 18 20 20 19 18 17 17 16 16 17 18 20 19 18 18 19 19 18 18 18 18 19 19 19 20 20 20 20 21 22 25 26 26 27 27 28 28 29 29 29 29 29 29 29 29 29 28 28 27 26 24 23 21 20 19 18 17 16 16 15 15 14 14 14 13 13 13 13 13 12
13 12 12 11 13 14 15 16 16 16 14 15 17 17 15 16 18 20 20 18 17 17 16 16 15 16 18 21 21 19 18 19 19 18 18 17 17 18 18 18 18 18 18 18 18 19 21 23 23 24 26 27 28 29 30 30 30 30 29 29 29 29 28 27 26 25 23 22 21 20 19 18 18 17 16 16 15 15 14 14 13 13 13 12 12 11
12 11 9 8 9 11 13 16 17 17 16 16 17 17 16 16 18 19 18 17 17 17 17 16 15 15 17 20 22 20 17 19 19 18 18 17 17 17 18 18 18 17 17 16 17 18 19 20 20 21 22 24 26 28 30 30 30 30 29 29 29 28 27 26 25 24 23 22 21 20 19 19 18 17 16 15 15 14 13 13 12 12 11 11 10 9
10 9 7 6 7 9 12 15 17 18 18 17 16 16 16 16 16 16 17 17 17 17 17 16 13 12 14 19 22 21 18 18 18 17 16 16 17 18 17 18 18 17 16 16 17 17 18 18 18 19 20 22 25 28 29 30 30 30 29 29 28 27 26 25 24 23 22 21 20 20 19 18 17 16 15 15 14 13 12 11 11 10 10 9 8 7
7 8 8 6 5 6 8 12 14 14 12 12 14 16 17 16 15 14 15 17 17 17 16 15 11 7 8 14 19 21 19 18 18 18 17 17 17 17 16 17 17 17 17 18 18 18 17 17 17 18 19 22 25 27 29 30 30 29 29 28 27 26 24 23 22 22 21 20 20 19 18 17 16 15 14 13 13 12 11 11 10 10 9 8 7 7
4 4 5 6 6 6 7 8 8 7 6 9 12 16 17 16 15 16 16 17 17 16 16 16 13 9 8 10 15 19 20 18 18 19 18 17 16 17 16 16 17 17 17 17 17 17 17 16 16 17 19 22 25 27 28 29 29 29 28 27 25 24 23 22 21 21 20 19 19 18 17 16 15 14 14 13 13 12 12 11 11 10 10 9 8 7
10 11 10 8 7 7 8 8 9 8 6 6 10 15 16 15 15 15 16 17 17 17 16 15 15 16 15 14 17 21 21 19 19 19 18 15 15 16 16 15 15 16 16 16 16 15 15 15 15 16 19 22 24 26 27 28 28 28 27 26 25 24 23 22 21 20 19 19 18 17 16 16 15 14 14 14 14 13 13 13 12 11 11 10 9 8
12 13 13 10 8 7 8 9 8 7 6 5 8 12 14 15 14 14 15 14 15 16 17 17 16 16 16 17 20 23 22 20 19 18 17 16 15 16 16 15 14 15 16 15 15 14 13 14 14 16 17 20 22 24 26 27 27 27 26 25 24 23 23 22 21 20 19 19 18 17 17 16 16 15 15 15 15 15 14 14 13 12 11 10 9 8
13 14 15 13 10 8 8 9 8 7 5 6 8 9 11 14 14 13 13 13 14 15 16 15 14 14 16 18 21 24 24 22 20 19 17 15 14 15 16 15 15 16 17 17 15 13 13 13 14 15 15 17 19 21 23 25 25 25 25 24 24 23 23 22 21 20 20 19 19 18 17 17 17 16 16 16 16 16 15 15 14 13 12 10 9 8
15 15 16 16 14 11 10 10 8 6 4 6 7 6 8 12 13 12 13 14 14 12 10 10 11 14 18 21 23 25 26 23 22 20 18 13 11 13 16 17 18 19 19 19 17 15 13 13 13 14 14 15 17 19 21 23 24 24 24 24 23 23 22 22 21 21 20 20 19 19 18 18 18 18 17 17 17 16 16 15 14 12 11 10 8 7
19 18 18 18 17 15 13 11 8 4 2 4 5 5 6 8 10 12 16 16 15 13 14 15 17 20 22 23 24 25 25 24 23 22 18 12 9 12 17 20 21 21 19 18 18 17 16 15 15 15 16 17 18 19 20 22 23 23 23 23 23 23 22 22 22 22 21 21 20 20 19 19 19 18 18 18 17 16 16 14 13 12 10 8 7 5
23 22 21 21 20 19 17 15 11 6 2 3 5 6 7 7 7 10 15 17 17 18 19 20 20 20 20 21 21 22 24 25 25 22 17 12 10 13 18 21 22 21 19 19 19 19 20 20 19 19 19 20 21 21 21 22 22 23 23 23 23 23 23 23 23 22 22 21 21 20 20 19 19 18 18 18 17 16 15 14 12 11 9 7 5 4
25 24 23 23 23 22 21 19 16 11 6 3 5 7 8 8 9 12 16 19 20 21 21 21 18 15 15 17 17 18 22 25 25 23 19 13 12 15 18 21 22 20 19 20 22 24 25 24 23 22 22 22 22 23 23 23 23 23 23 24 24 24 24 23 23 22 22 21 20 20 19 19 18 18 17 17 16 15 14 13 11 9 7 5 3 3
26 25 24 24 23 23 23 21 19 15 11 6 5 7 9 10 12 15 17 19 20 21 19 15 11 9 11 12 13 14 18 21 23 23 23 17 15 15 17 21 22 22 21 22 24 26 27 26 24 22 22 22 22 23 23 23 23 24 24 24 24 24 24 23 23 22 21 20 20 19 18 18 17 16 16 15 14 13 12 10 9 7 5 3 3 3
25 25 24 24 24 23 23 22 20 18 15 10 7 8 11 12 15 17 17 18 19 19 15 10 7 7 8 9 9 11 15 16 17 20 24 23 19 16 16 20 24 26 24 24 25 26 26 25 24 23 23 22 21 21 22 22 23 23 23 23 23 23 23 22 22 21 20 19 18 18 17 16 15 14 14 13 12 11 9 8 6 5 3 3 4 5
26 26 26 25 25 24 23 22 20 19 18 14 10 9 11 12 13 11 10 13 17 18 15 11 8 6 5 6 7 10 13 14 15 19 23 23 19 16 17 22 27 28 27 24 24 24 24 23 22 23 24 23 21 21 21 21 21 21 21 22 22 22 22 21 21 20 19 18 18 17 16 15 14 12 11 10 9 7 6 5 4 2 2 3 5 6
27 27 28 28 27 26 25 24 23 21 20 18 15 13 12 12 11 9 7 10 12 13 14 14 12 10 8 9 10 11 11 12 14 18 22 21 18 17 20 23 26 29 28 24 21 21 21 20 21 22 24 24 22 21 20 20 20 20 20 21 21 21 21 20 20 19 18 17 16 15 14 13 12 10 8 7 6 5 3 2 1 1 3 4 5 7
27 28 29 29 29 28 28 27 26 25 23 21 19 17 16 15 13 11 8 9 8 9 13 15 16 15 14 12 9 7 7 8 12 17 19 18 17 19 22 23 24 27 27 21 15 11 13 15 18 21 22 22 22 21 20 20 19 19 19 19 20 20 19 19 19 18 17 16 15 14 12 11 10 8 6 5 4 2 1 1 1 3 4 5 5 6
26 27 28 28 29 29 30 29 28 27 25 22 21 21 20 19 16 14 11 10 9 9 12 14 16 17 17 11 5 2 2 5 10 16 17 15 16 21 23 22 22 24 25 20 11 4 5 7 12 17 19 20 21 21 21 21 20 19 18 18 18 18 17 17 17 16 15 14 13 12 11 9 8 7 5 4 2 1 1 1 2 3 4 4 5 5
24 25 25 26 27 29 29 30 29 29 27 25 24 24 23 22 20 18 16 15 14 13 13 14 15 16 16 11 6 4 3 6 10 14 16 15 17 21 23 22 21 21 22 20 16 10 6 5 8 13 16 18 19 19 20 20 21 21 20 19 18 17 16 15 15 15 14 12 11 10 9 7 6 5 4 3 2 1 2 2 3 3 3 3 3 4
23 23 23 24 25 26 27 28 28 29 28 28 28 27 26 25 24 22 21 19 18 17 16 15 14 13 12 12 10 8 8 8 10 13 16 16 16 18 21 22 21 21 20 18 17 16 12 11 11 13 15 16 17 17 18 19 20 20 20 19 18 16 15 14 14 13 12 10 9 7 6 5 4 3 3 2 2 2 3 4 4 4 3 2 3 3
22 22 22 23 23 24 25 26 26 27 27 28 28 28 27 27 26 25 24 23 21 20 19 17 14 12 12 12 12 11 11 10 11 13 16 16 16 17 20 21 21 21 19 16 16 17 16 16 16 15 13 14 15 15 16 17 17 18 17 17 16 15 14 13 11 10 9 8 6 5 4 3 2 2 3 3 3 4 5 5 6 6 5 4 3 3
20 21 21 21 21 22 22 24 24 25 25 26 27 27 27 27 27 27 27 26 25 23 21 20 17 15 14 13 11 10 10 9 11 13 16 16 17 18 19 19 20 20 19 17 16 16 16 17 17 17 13 12 12 12 12 13 14 14 13 13 12 12 11 10 9 7 6 5 4 3 2 2 1 2 3 4 4 5 6 6 7 7 7 6 6 5
18 19 19 20 19 20 20 21 22 22 23 24 25 26 26 26 27 27 28 28 28 27 26 24 23 21 19 17 15 13 12 10 11 13 15 17 18 19 17 17 18 19 17 16 16 17 17 16 16 16 14 11 9 9 10 11 11 11 10 9 9 9 9 8 7 5 5 4 3 3 2 2 1 2 4 4 5 5 6 7 7 8 8 8 8 7
17 17 18 18 18 18 18 19 20 20 21 21 22 24 24 25 26 26 28 29 29 29 29 29 28 26 24 22 21 19 16 14 12 13 15 17 19 19 16 15 16 17 16 14 15 16 17 16 15 14 13 11 9 8 9 10 10 9 8 8 8 8 8 7 6 6 5 5 4 4 3 2 2 2 3 4 4 5 6 7 8 9 9 9 9 9
16 16 16 17 17 17 17 18 18 19 19 19 19 20 21 22 23 24 26 27 28 29 29 29 29 28 27 26 24 22 20 18 16 15 16 17 18 18 17 16 15 15 16 15 15 16 16 15 14 12 11 10 10 10 10 10 10 9 8 8 8 8 8 7 7 6 5 5 5 4 3 3 2 2 2 2 2 3 3 5 7 8 9 9 9 10
15 15 15 15 16 16 16 16 17 17 17 17 17 17 18 19 20 22 23 24 26 27 27 27 28 27 27 27 26 24 23 21 19 18 18 18 18 18 18 16 15 15 16 16 16 16 15 15 14 13 11 11 10 10 10 10 10 9 9 8 7 7 7 7 6 6 5 5 4 4 3 2 2 1 1 1 1 0 1 2 4 6 7 6 7 8
14 14 14 14 14 14 15 15 15 15 15 15 16 16 16 16 17 18 20 21 23 24 25 26 26 27 27 27 27 26 25 23 21 20 19 19 19 19 18 18 17 16 17 17 16 15 14 13 13 13 13 12 11 11 10 9 9 10 9 8 6 5 5 6 6 5 5 5 4 4 3 3 2 2 1 1 1 1 1 2 3 5 6 5 4 5
13 13 13 13 13 13 13 13 14 14 15 15 16 16 16 16 15 16 17 18 19 20 21 22 23 25 26 26 26 26 26 24 23 22 21 20 19 18 18 18 18 17 17 17 17 16 15 14 13 13 12 12 12 12 10 9 9 9 8 7 7 6 6 5 5 5 4 4 4 4 3 3 2 1 1 1 1 2 4 4 4 5 5 5 5 5
13 12 12 12 12 12 12 13 13 14 15 16 17 17 16 15 15 14 14 15 16 17 17 18 19 20 21 23 24 25 25 24 23 22 20 19 19 19 19 19 18 17 17 17 17 16 15 15 14 13 12 12 12 11 10 9 9 8 7 7 7 7 6 5 4 4 4 4 3 3 3 2 1 1 1 1 2 3 5 6 6 6 6 5 5 6
12 11 11 11 11 11 12 13 14 14 15 16 16 16 15 15 14 13 13 14 14 14 14 15 15 15 16 17 19 21 22 22 22 21 20 19 18 18 18 18 17 17 16 16 16 15 15 15 14 13 12 12 11 11 10 9 8 7 6 6 6 6 5 5 5 4 4 3 3 2 2 1 1 1 2 2 3 4 5 6 7 7 7 6 6 6
11 11 11 11 12 12 13 13 14 14 14 14 15 15 14 14 14 13 12 12 12 12 12 12 13 14 14 14 14 15 17 19 20 20 20 19 18 17 17 16 16 16 15 15 14 14 14 15 14 13 13 12 11 10 10 9 8 7 6 5 5 4 4 5 5 4 4 2 2 1 1 1 1 2 2 3 3 4 4 4 5 5 6 6 6 6
11 11 12 12 12 13 13 13 13 13 13 14 14 14 14 14 14 13 12 12 12 12 11 11 11 12 12 12 12 12 13 15 17 18 18 17 17 16 16 16 15 15 14 14 13 13 12 12 12 12 12 11 10 9 9 8 7 7 6 5 4 4 4 5 5 4 3 3 2 1 1 2 2 2 2 2 2 3 3 4 4 5 5 6 6 7
11 12 12 12 13 13 13 13 13 13 13 13 14 14 14 14 14 13 12 12 11 11 11 11 11 11 11 11 11 11 11 12 13 14 15 16 16 16 16 15 15 14 14 13 13 12 12 11 10 10 9 9 8 8 7 7 7 7 6 5 5 5 4 4 4 3 3 3 2 1 2 2 2 2 2 2 3 3 4 4 5 5 6 6 6 7
12 12 12 12 12 12 13 13 13 13 13 13 13 13 14 14 13 13 12 12 11 11 11 12 12 12 12 11 10 10 10 10 11 11 12 13 14 14 14 14 14 14 14 13 13 12 12 11 9 8 7 7 6 6 6 6 6 6 6 6 5 5 5 4 3 3 3 2 2 1 2 2 2 2 2 3 4 4 4 5 5 6 6 7 7 7
12 12 12 12 12 12 12 12 12 12 12 12 13 13 14 14 13 13 12 12 11 11 11 12 12 12 12 11 11 10 10 10 10 10 10 11 11 12 12 12 12 13 13 13 13 13 12 12 10 8 6 5 6 6 6 6 5 5 5 5 5 5 5 4 3 3 2 2 1 1 2 2 2 2 3 4 4 5 5 5 5 6 6 7 7 7
12 12 12 11 11 11 11 12 12 11 11 11 11 12 13 13 14 13 12 11 11 11 11 11 11 11 11 11 10 10 10 10 10 10 10 10 10 10 9 9 10 10 11 12 13 12 12 12 11 10 9 7 6 6 6 6 6 5 5 5 5 5 4 4 3 3 2 1 1 1 1 2 2 2 3 4 5 5 5 5 6 6 6 6 7 7
11 11 11 11 11 11 11 11 11 11 11 10 10 11 11 12 13 13 12 11 11 11 11 11 11 11 10 10 10 10 10 9 9 9 9 9 9 9 8 7 7 8 9 9 9 10 10 10 10 10 10 9 7 6 6 6 6 5 5 5 4 4 4 4 3 2 1 1 0 1 2 2 2 3 4 4 5 6 6 6 5 5 4 4 6 7
11 11 11 11 11 11 10 11 10 10 10 10 10 10 10 11 11 12 11 11 11 11 11 11 11 11 10 10 9 9 9 9 9 9 8 8 8 8 7 6 6 6 6 6 6 7 7 7 7 7 8 9 8 7 5 5 5 5 5 4 4 3 3 2 2 2 1 1 1 2 2 3 3 3 3 4 5 6 6 5 5 4 4 4 5 6
Wind_Direction
233 198 191 185 179 176 180 183 182 178 173 168 167 170 176 174 170 167 168 164 162 161 161 162 161 159 155 151 147 144 144 146 148 148 146 143 141 140 140 140 141 143 145 148 152 155 157 158 159 160 161 162 162 162 161 159 156 155 155 154 154 153 154 155 156 157 157 156 156 156 156 156 155 154 152 150 148 147 146 145 144 144 142 140 137 133
243 215 198 189 182 177 177 181 181 178 174 169 165 163 165 166 166 165 164 161 160 160 162 164 163 159 156 154 153 152 152 155 156 155 152 149 145 142 141 140 140 141 142 144 146 150 152 153 154 155 156 157 157 156 155 152 150 149 150 151 152 153 154 155 155 156 155 154 154 153 153 152 152 151 149 147 144 142 141 140 139 138 137 135 132 128
233 222 207 194 187 183 178 179 181 182 177 171 164 159 158 159 162 164 162 160 161 162 163 164 163 161 159 159 160 161 163 165 166 166 163 160 157 154 152 151 150 149 148 146 146 146 148 149 149 150 151 151 151 150 149 147 146 147 149 151 152 154 154 155 155 154 153 151 150 149 149 148 148 147 145 142 139 137 135 134 133 132 132 130 128 126
233 222 209 195 188 183 177 175 179 181 177 170 164 158 156 157 160 164 164 161 161 163 163 164 163 162 162 163 166 169 171 171 171 170 168 165 163 161 160 158 157 156 156 156 156 156 157 157 157 157 156 154 152 151 150 149 149 151 153 155 156 156 157 156 155 154 152 151 150 149 148 146 145 143 140 138 136 134 132 131 130 129 128 127 126 124
237 225 210 195 188 185 180 176 176 176 172 168 164 160 160 159 161 164 166 164 161 161 162 162 162 162 163 166 171 175 177 176 175 174 172 170 168 167 166 164 162 159 158 157 158 160 162 164 167 169 168 167 165 162 160 161 162 163 164 164 164 163 161 159 157 155 154 153 152 151 149 147 144 141 139 136 135 133 132 131 130 129 127 125 124 122
235 229 213 198 189 184 180 177 175 172 170 169 168 166 164 162 162 165 167 164 160 158 159 159 160 161 164 168 174 178 181 181 180 178 176 174 173 172 171 169 168 165 163 161 161 161 162 164 167 170 172 174 175 175 173 174 174 175 174 172 170 168 165 162 159 157 156 156 155 153 151 147 144 142 139 137 135 133 132 130 129 127 125 123 122 121
226 229 219 203 188 178 175 177 177 174 173 174 176 176 173 167 166 169 171 164 158 154 155 157 157 158 162 170 174 177 179 180 180 179 178 176 175 174 174 172 171 169 168 167 166 165 165 166 167 168 169 172 176 178 179 179 180 181 180 177 174 171 168 165 162 160 159 158 156 153 150 147 145 142 140 138 136 133 131 129 127 125 123 122 121 121
210 218 220 207 185 170 174 178 182 182 179 175 175 178 179 177 175 173 169 157 150 150 152 154 154 153 155 164 167 168 168 170 171 172 173 173 172 172 173 173 172 172 171 170 169 169 168 169 169 170 170 172 174 176 179 181 182 184 184 182 178 175 171 168 165 163 161 159 156 153 150 147 145 143 141 138 136 133 131 128 125 123 122 122 122 122
200 204 212 208 191 176 179 181 186 188 185 178 172 169 172 176 174 167 155 143 141 146 150 151 151 150 149 154 157 157 158 160 162 163 164 164 164 165 167 168 170 171 171 171 170 169 168 169 169 170 171 172 173 174 176 177 178 180 180 179 177 174 170 168 165 163 161 159 156 153 150 148 146 143 141 139 136 133 130 127 125 123 123 123 123 122
198 200 205 206 198 186 180 176 180 184 185 180 175 170 166 167 165 157 144 137 137 142 147 148 148 147 147 149 151 152 152 155 157 158 159 159 158 158 160 162 163 165 167 167 167 167 166 166 167 168 169 170 170 171 171 172 173 173 174 174 172 171 168 166 164 162 160 157 155 152 150 148 145 143 141 139 137 134 131 128 127 126 125 125 125 124
195 197 199 199 195 187 177 168 168 174 180 182 183 181 176 170 162 152 142 139 139 142 145 146 146 146 147 149 150 150 148 148 150 153 155 156 156 155 155 157 159 161 162 163 163 164 164 164 164 164 165 166 167 167 168 169 169 170 170 170 169 168 166 164 162 159 157 155 153 151 150 147 145 143 141 139 137 135 133 132 130 130 129 129 129 128
187 190 191 189 185 178 169 163 164 168 173 181 186 187 185 179 166 153 146 144 145 146 147 146 145 144 146 146 148 149 147 144 144 146 150 151 150 148 148 149 151 154 156 157 159 162 163 163 163 163 163 164 165 165 166 167 168 169 169 169 168 166 164 162 160 158 156 154 152 151 150 148 146 145 143 141 140 139 137 136 136 135 134 134 134 133
181 181 182 178 176 171 163 159 159 164 171 179 182 182 179 172 162 154 149 146 145 146 143 139 137 139 143 143 143 144 146 145 144 144 146 147 146 145 143 143 144 146 148 150 153 157 161 162 162 163 163 164 165 166 167 168 169 169 169 169 167 165 163 161 159 157 155 153 152 151 151 150 149 148 147 146 145 144 143 142 141 140 140 139 139 137
174 173 172 169 168 167 162 159 161 167 173 176 175 172 167 161 157 154 149 144 141 139 135 131 133 139 143 143 141 140 142 143 142 142 144 144 146 145 142 141 142 145 146 148 151 154 157 157 158 159 162 164 165 167 168 169 169 170 169 168 167 164 162 160 158 157 155 154 154 153 153 154 154 153 153 152 150 149 148 146 145 144 143 143 142 140
166 164 161 158 159 162 162 162 165 172 180 181 174 165 160 157 156 154 148 142 138 135 132 131 133 139 144 145 142 138 138 141 141 139 140 140 142 144 143 142 143 144 145 146 150 153 155 154 155 158 160 162 164 166 168 169 170 170 169 168 166 164 162 161 159 158 157 156 156 157 158 158 158 158 157 156 154 153 151 149 148 146 146 145 144 141
158 154 151 143 145 154 164 168 173 180 186 186 176 164 160 159 155 148 143 141 140 139 138 137 137 141 149 149 144 139 137 140 139 134 133 133 136 141 143 143 141 139 141 143 147 151 154 154 156 159 160 163 166 168 169 170 170 170 169 168 166 165 163 162 161 160 160 160 161 161 162 163 162 162 160 158 157 155 153 152 151 150 149 149 147 145
152 152 149 126 108 115 135 152 167 177 180 175 168 162 158 153 147 141 140 144 146 147 149 148 147 148 152 153 148 143 141 143 140 135 133 131 132 135 139 142 139 136 139 142 145 149 152 154 155 157 161 165 169 170 170 170 170 170 169 168 167 166 166 165 164 164 164 165 165 166 166 166 165 164 162 161 159 158 157 156 156 156 156 156 156 156
64 79 91 88 80 73 78 93 115 133 138 151 156 158 158 151 146 145 148 151 153 155 156 155 156 156 155 161 158 151 144 144 143 139 135 131 130 131 135 139 141 139 138 140 143 146 150 152 153 157 163 169 171 171 171 171 170 170 170 169 169 169 168 168 168 169 169 170 170 170 170 169 168 166 164 163 163 162 163 163 164 165 166 167 168 169
34 31 34 42 52 58 62 64 67 73 85 114 141 152 158 158 154 151 154 157 159 159 158 158 159 160 160 164 162 155 147 147 145 141 137 132 131 131 132 135 136 135 135 139 142 143 145 147 151 159 167 171 172 172 171 171 171 171 171 171 171 171 172 172 173 173 174 174 174 174 173 172 170 168 167 166 166 167 168 169 171 172 174 175 176 177
43 35 29 26 28 37 45 47 50 54 59 81 124 143 152 160 159 154 154 155 158 160 161 161 160 158 157 160 160 156 149 148 143 138 135 132 131 131 130 134 132 129 133 139 142 141 140 144 152 161 168 171 172 172 171 171 171 172 172 173 173 174 175 175 176 176 176 176 176 176 175 173 171 170 169 169 169 171 172 174 175 177 179 180 181 181
47 39 32 28 26 24 23 21 26 38 62 88 107 126 144 157 160 159 156 153 152 154 158 158 153 147 149 153 155 154 150 146 141 136 133 130 127 127 128 132 133 133 135 138 140 141 140 143 150 158 164 169 170 171 171 172 173 173 174 174 175 175 176 176 176 176 176 177 177 176 175 174 173 172 171 171 172 174 175 177 179 180 182 182 182 183
47 39 34 33 33 30 23 16 16 29 71 97 97 105 134 157 163 165 163 160 154 142 122 109 114 129 141 148 151 151 150 147 142 138 134 128 119 117 125 130 132 131 128 130 134 139 143 145 148 153 160 166 167 168 170 172 173 173 174 173 173 173 173 174 174 175 175 176 176 176 175 174 173 173 173 173 174 176 177 179 181 182 183 184 184 185
47 40 36 34 34 33 30 26 25 35 100 122 114 109 124 154 163 168 172 168 156 135 114 114 122 131 139 143 146 146 147 147 145 140 134 128 120 119 124 130 131 126 120 122 127 133 139 141 143 146 152 158 161 162 164 167 170 171 170 169 168 168 169 171 172 173 173 174 174 174 174 173 173 173 173 174 175 176 178 180 181 183 184 185 187 192
47 42 38 35 35 35 36 36 35 39 89 154 159 156 152 153 153 158 165 157 145 133 126 124 123 124 128 133 136 139 142 145 145 141 134 127 122 124 126 130 127 122 119 120 122 125 129 130 131 134 140 147 153 156 158 161 164 165 163 163 164 165 166 167 168 169 169 170 170 171 171 171 171 171 172 173 175 176 178 180 181 183 184 187 194 207
48 44 41 39 38 40 42 43 41 41 48 109 157 162 162 157 151 147 146 145 140 133 127 121 116 112 116 122 125 130 138 144 146 143 135 125 121 124 127 132 129 122 118 119 121 123 123 123 124 126 131 137 143 148 152 155 157 157 158 159 160 161 162 163 164 164 164 165 165 166 166 167 167 168 170 172 174 177 179 180 180 182 185 193 210 241
51 49 46 44 43 44 45 46 46 46 48 66 116 141 145 146 147 144 138 137 135 131 124 116 111 112 117 118 118 124 134 142 146 146 140 133 127 126 127 132 129 122 118 117 118 119 119 119 119 121 124 127 133 139 144 147 149 151 152 153 154 156 157 157 158 158 159 159 160 160 161 162 163 165 168 171 174 176 178 178 178 181 189 209 242 274
53 52 50 49 47 46 46 47 47 48 50 60 91 126 135 139 140 137 131 135 139 138 129 120 115 114 112 110 112 121 132 137 141 144 144 139 134 130 131 132 129 124 117 113 113 115 116 115 115 116 118 120 124 130 135 138 139 140 143 145 146 148 150 152 152 153 153 154 154 155 156 157 159 162 166 170 173 175 176 175 177 185 205 247 281 296
52 52 51 50 49 48 48 48 49 49 50 56 75 105 124 130 126 121 123 138 145 145 139 135 133 129 122 114 111 117 126 128 133 138 141 139 136 134 136 135 132 127 119 113 112 114 115 113 113 114 115 117 120 123 127 130 132 133 135 138 141 143 145 146 147 148 149 149 150 151 153 154 156 160 164 169 173 175 175 176 182 202 250 292 308 313
50 51 51 50 49 48 48 48 49 50 52 57 65 80 97 105 99 92 107 132 143 147 146 143 142 140 134 126 116 111 111 116 125 133 137 136 134 136 140 139 136 132 127 119 112 108 107 109 112 114 116 119 120 121 122 125 127 129 131 134 137 139 141 142 143 144 145 147 148 150 151 153 155 158 163 168 173 177 179 185 216 285 310 318 322 323
44 46 47 47 47 46 46 46 47 49 53 57 61 66 72 79 79 82 100 117 128 139 146 143 142 141 136 130 119 101 93 107 123 131 134 134 137 141 143 143 143 141 137 130 118 102 98 103 110 115 119 122 124 124 123 122 122 123 125 128 132 134 137 139 141 142 144 146 147 149 151 153 154 157 161 167 174 184 200 262 318 330 334 332 331 327
37 39 40 42 42 43 43 44 45 47 51 56 58 59 60 63 65 72 84 92 99 116 134 138 141 143 143 142 136 105 89 114 127 132 134 134 141 147 147 148 149 148 145 142 137 117 107 106 113 119 123 125 126 126 126 125 124 123 122 124 127 130 135 140 142 143 144 146 148 149 151 152 154 157 160 165 175 198 270 318 334 342 344 340 335 327
35 37 37 38 39 40 41 41 43 45 47 50 51 52 54 57 59 63 71 79 87 98 112 124 134 141 145 144 135 117 115 131 136 137 137 136 143 150 152 152 154 154 153 150 147 144 137 136 130 126 125 125 125 127 130 130 130 130 128 127 127 129 134 139 142 143 145 147 148 150 152 153 156 158 163 170 187 244 302 318 326 334 339 337 332 321
37 37 37 38 39 39 39 39 40 42 42 43 43 45 49 52 55 59 65 73 81 89 97 105 113 120 123 116 109 104 111 129 139 141 139 138 143 151 155 156 156 157 157 153 148 145 141 143 141 134 128 127 128 130 133 135 136 136 135 134 133 134 137 140 142 143 145 147 149 151 154 158 164 174 189 211 247 279 296 305 308 308 307 309 312 312
36 36 36 37 37 37 38 38 39 39 39 39 40 41 44 47 51 56 61 67 74 81 87 90 92 93 96 99 100 100 105 121 138 144 143 141 144 151 155 157 158 158 156 150 144 140 138 140 142 141 134 131 131 133 136 139 142 144 145 145 145 145 147 149 150 149 150 151 151 152 158 167 188 217 239 256 271 283 291 295 296 294 288 282 283 293
36 35 35 34 34 34 35 36 37 38 38 38 39 40 42 45 50 55 60 64 69 73 78 81 85 88 91 96 97 94 91 112 135 145 145 144 146 148 151 156 159 160 157 150 144 140 140 141 145 146 140 135 134 136 139 143 147 150 153 156 157 157 159 161 161 160 159 157 153 149 152 167 214 250 261 270 278 285 289 291 290 287 285 282 279 276
35 34 33 32 32 31 32 33 34 35 36 37 38 39 42 45 50 55 60 64 67 70 73 76 80 86 92 96 95 88 86 102 127 142 146 146 146 146 145 151 156 158 155 151 147 146 146 145 146 147 143 139 137 138 141 144 145 145 148 153 156 158 158 157 154 150 147 143 140 138 142 154 200 244 263 273 280 284 285 285 285 285 285 285 284 280
36 34 32 31 30 30 30 31 32 32 33 34 36 38 41 45 49 55 60 65 68 71 72 74 76 78 82 87 87 86 87 97 115 132 141 144 145 143 138 140 147 151 148 145 145 145 144 143 144 145 145 144 143 143 143 142 139 136 136 140 144 145 144 142 137 132 130 129 133 140 149 161 194 237 263 277 286 292 293 291 288 287 287 289 289 286
36 34 31 30 29 29 29 29 30 31 32 33 34 37 40 44 48 53 59 63 67 70 72 73 73 73 75 77 79 82 88 95 107 119 129 135 138 136 131 129 133 138 139 139 140 141 142 143 145 147 149 146 142 140 143 142 139 137 135 136 137 137 137 134 132 129 129 130 137 146 158 169 192 232 269 288 303 312 311 308 300 295 296 298 299 296
35 33 31 29 28 28 29 28 29 31 33 35 37 39 42 45 48 52 57 61 65 68 70 71 72 71 72 73 75 80 85 91 99 109 118 124 126 126 124 120 120 124 129 131 133 135 138 142 146 149 147 142 137 135 138 139 139 138 136 133 132 133 136 136 135 133 131 131 133 138 147 155 163 179 224 283 295 292 295 301 300 301 306 312 312 307
34 33 31 29 28 28 29 29 30 33 36 40 42 43 44 44 47 50 54 58 62 65 68 70 71 71 71 71 72 75 79 85 92 100 107 112 116 118 118 114 113 116 122 125 125 125 126 128 133 138 140 138 136 135 136 136 137 138 136 134 133 136 138 140 139 136 133 131 130 129 131 138 147 154 170 203 231 233 240 269 289 297 303 305 306 305
35 33 30 28 27 29 31 33 36 40 43 46 46 45 43 42 43 45 49 53 57 60 63 66 67 68 68 68 68 69 72 76 82 90 97 101 105 110 114 111 110 112 116 118 118 117 116 116 117 122 127 131 133 134 133 134 136 139 140 140 139 136 136 139 139 136 132 132 134 134 135 139 146 158 182 232 260 263 261 263 272 283 292 295 292 289
35 33 29 27 27 29 32 37 42 46 48 48 46 44 43 41 41 42 45 48 50 52 55 58 60 61 61 61 62 64 66 69 74 79 86 94 101 106 107 106 107 109 112 112 112 112 113 113 114 117 123 128 131 132 131 131 133 134 135 134 133 132 133 139 142 139 133 131 134 140 146 139 133 154 227 263 283 282 280 278 277 279 284 287 287 283
34 32 30 29 30 32 35 40 43 45 47 47 45 43 42 42 42 42 44 45 46 48 50 54 58 60 60 58 57 58 60 65 69 73 78 84 91 97 101 103 105 108 110 108 106 105 108 109 109 111 117 124 127 129 129 128 128 128 127 129 136 141 143 142 141 139 136 135 138 144 147 151 174 251 277 281 286 288 292 293 293 291 289 285 284 283
31 30 30 31 33 35 37 39 41 42 44 43 42 41 42 44 45 45 45 46 46 46 47 51 57 60 60 60 58 55 55 59 64 69 72 76 82 88 94 98 102 105 106 104 102 103 106 106 107 109 113 116 119 121 124 126 127 128 128 130 134 136 134 130 128 127 127 126 129 147 205 242 266 286 301 299 296 295 294 294 295 294 291 288 286 284
27 28 29 31 33 35 35 35 37 40 43 44 43 42 42 44 46 47 47 47 47 46 46 49 54 57 57 57 58 56 53 53 56 61 65 70 76 82 87 91 94 97 99 99 101 103 103 101 104 108 112 111 110 113 119 124 126 127 127 126 122 114 105 110 114 114 111 102 85 48 325 302 310 324 323 309 293 285 285 284 283 283 284 285 284 284
25 26 27 29 31 32 32 33 35 39 42 43 43 43 43 44 46 48 48 49 50 50 49 52 56 58 57 55 55 55 54 51 50 51 55 61 68 75 80 85 89 92 92 93 96 99 100 101 104 106 107 105 103 106 113 120 124 126 126 126 123 117 113 109 108 106 101 92 75 32 346 334 339 340 319 299 290 286 281 279 277 277 277 279 281 282
23 24 25 27 29 30 30 32 34 37 40 41 42 42 43 44 45 47 48 50 53 54 55 57 60 60 59 56 55 54 54 52 50 50 50 52 57 64 71 77 83 88 92 93 94 95 94 95 97 99 103 104 104 105 109 113 118 122 126 129 129 125 119 113 110 104 94 84 64 19 355 356 353 336 313 300 292 286 279 276 274 274 275 277 281 283
22 23 23 25 26 28 28 29 31 33 35 37 39 41 43 44 45 45 46 48 52 55 58 60 62 62 61 58 56 55 56 55 53 50 48 48 50 55 62 69 76 83 89 93 95 97 98 96 91 85 85 98 111 116 117 115 115 118 123 127 129 129 124 120 115 107 96 79 44 345 348 358 348 325 311 300 289 282 277 275 273 273 274 277 281 285
22 23 23 24 25 26 26 27 28 30 31 33 35 37 40 44 46 45 45 46 49 54 57 60 63 64 63 60 57 56 55 55 53 50 47 45 46 49 55 63 72 79 84 87 90 92 93 92 88 81 74 76 94 112 119 119 118 116 117 120 125 127 128 128 125 120 110 92 31 323 321 320 305 296 295 289 283 279 278 277 275 273 272 275 282 288
22 22 23 24 25 25 25 25 26 27 28 30 32 34 36 41 44 45 45 46 49 53 55 59 61 63 63 61 57 55 54 54 53 49 46 43 44 47 53 63 76 85 88 89 90 90 86 84 81 76 71 67 73 92 113 119 120 116 112 113 116 122 126 132 138 145 148 140 270 288 287 281 276 277 277 277 277 279 279 278 275 272 269 273 284 292
22 22 23 24 25 25 25 25 26 26 27 28 30 33 35 37 39 42 44 45 48 51 54 57 60 61 62 61 58 55 54 54 52 50 44 42 43 46 51 63 81 98 107 110 112 113 110 101 88 75 66 62 65 74 93 113 122 122 116 114 114 117 125 140 157 171 179 229 258 264 265 265 262 263 267 273 278 281 281 279 277 276 275 279 286 290